FW6831 Weather Reports


Display with metric or nautical units.
time (UTC)temp
F
wind
direction
speed
MPH
gust
MPH
rain 1hr
in
rain 24hr
in
rain mn
in
humidity
%
barometer
mb
20260906191048 55 314 0.0 1.0 0.00 0.00 0.00 92 1021.3
20260906190544 55 313 1.0 1.0 0.00 0.00 0.00 92 1021.3
20260906185545 55 314 0.0 1.0 0.00 0.00 0.00 92 1021.1
20260906185044 55 0 0.0 1.0 0.00 0.00 0.00 92 1021.2
20260906184557 55 314 0.0 1.0 0.00 0.00 0.00 92 1021.2
20260906184043 55 0 0.0 1.0 0.00 0.00 0.00 92 1021.2
20260906183542 55 0 0.0 1.0 0.00 0.00 0.00 91 1021.2
20260906183114 55 0 0.0 1.0 0.00 0.00 0.00 91 1021.2
20260906182540 55 0 0.0 1.0 0.00 0.00 0.00 91 1021.1
20260906182047 56 0 0.0 1.0 0.00 0.00 0.00 91 1021.1
20260906181619 56 0 0.0 0.0 0.00 0.00 0.00 91 1021.1
20260906181044 56 0 0.0 0.0 0.00 0.00 0.00 90 1021.1
20260906180544 56 0 0.0 0.0 0.00 0.00 0.00 90 1021.0
20260906180116 56 0 0.0 0.0 0.00 0.00 0.00 90 1021.0
20260906175544 56 0 0.0 0.0 0.00 0.00 0.00 90 1021.0
20260906175043 57 0 0.0 0.0 0.00 0.00 0.00 90 1021.0
20260906174557 57 0 0.0 0.0 0.00 0.00 0.00 90 1020.9
20260906174044 57 0 0.0 0.0 0.00 0.00 0.00 90 1020.8
20260906173543 57 0 0.0 0.0 0.00 0.00 0.00 90 1020.9
20260906173101 57 0 0.0 0.0 0.00 0.00 0.00 90 1021.0
20260906172544 57 0 0.0 0.0 0.00 0.00 0.00 89 1020.9
20260906172044 57 0 0.0 0.0 0.00 0.00 0.00 89 1020.9
20260906171553 57 0 0.0 0.0 0.00 0.00 0.00 89 1020.9
20260906171042 57 0 0.0 0.0 0.00 0.00 0.00 89 1020.9
20260906170546 57 0 0.0 0.0 0.00 0.00 0.00 89 1020.8
20260906170106 58 0 0.0 0.0 0.00 0.00 0.00 88 1020.9
20260906165544 58 0 0.0 0.0 0.00 0.00 0.00 88 1020.9
20260906165043 58 0 0.0 0.0 0.00 0.00 0.00 88 1020.8
20260906164554 58 0 0.0 0.0 0.00 0.00 0.00 87 1020.8
20260906164044 58 0 0.0 0.0 0.00 0.00 0.00 87 1020.8
20260906163544 58 0 0.0 0.0 0.00 0.00 0.00 87 1020.8
20260906163108 59 0 0.0 0.0 0.00 0.00 0.00 86 1020.9
20260906162544 59 0 0.0 0.0 0.00 0.00 0.00 87 1021.0
20260906162044 59 0 0.0 0.0 0.00 0.00 0.00 86 1021.0
20260906161603 59 0 0.0 0.0 0.00 0.00 0.00 86 1021.0
20260906161043 59 0 0.0 0.0 0.00 0.00 0.00 85 1021.1
20260906160544 60 0 0.0 0.0 0.00 0.00 0.00 85 1021.1
20260906160059 60 0 0.0 1.0 0.00 0.00 0.00 85 1021.1
20260906155547 60 0 0.0 1.0 0.00 0.00 0.00 85 1021.1
20260906155045 60 0 0.0 1.0 0.00 0.00 0.00 84 1021.1
20260906154559 61 0 0.0 0.0 0.00 0.00 0.00 84 1021.1
20260906154044 61 0 0.0 0.0 0.00 0.00 0.00 83 1021.1
20260906153544 61 0 0.0 0.0 0.00 0.00 0.00 82 1021.0
20260906153058 62 0 0.0 0.0 0.00 0.00 0.00 82 1021.1
20260906152543 62 0 0.0 0.0 0.00 0.00 0.00 80 1021.1
20260906152045 63 0 0.0 0.0 0.00 0.00 0.00 80 1021.1
20260906151602 63 0 0.0 2.0 0.00 0.00 0.00 79 1021.1
20260906151043 64 0 0.0 2.0 0.00 0.00 0.00 79 1021.1
20260906150543 64 193 0.0 4.0 0.00 0.00 0.00 78 1021.0
20260906145544 64 198 1.0 4.0 0.00 0.00 0.00 78 1021.2
20260906145047 65 181 2.0 5.0 0.00 0.00 0.00 78 1021.2
20260906144607 65 139 1.0 5.0 0.00 0.00 0.00 78 1021.2
20260906144044 65 153 2.0 4.0 0.00 0.00 0.00 77 1021.1
20260906143548 65 197 2.0 5.0 0.00 0.00 0.00 77 1021.2
20260906143059 65 154 2.0 8.0 0.00 0.00 0.00 77 1021.1
20260906142543 65 153 1.0 8.0 0.00 0.00 0.00 77 1021.1
20260906142047 65 115 3.0 8.0 0.00 0.00 0.00 77 1021.2
20260906141613 66 202 3.0 10.0 0.00 0.00 0.00 77 1021.2
20260906141043 66 176 2.0 10.0 0.00 0.00 0.00 77 1021.0
20260906140546 66 150 4.0 10.0 0.00 0.00 0.00 77 1021.1
20260906135545 66 161 1.0 11.0 0.00 0.00 0.00 77 1021.1
20260906135046 66 178 3.0 11.0 0.00 0.00 0.00 77 1021.1
20260906134603 66 161 1.0 7.0 0.00 0.00 0.00 76 1021.0
20260906134045 66 117 3.0 11.0 0.00 0.00 0.00 76 1021.1
20260906133545 66 170 4.0 11.0 0.00 0.00 0.00 76 1021.0
20260906133102 66 173 4.0 12.0 0.00 0.00 0.00 76 1021.0
20260906132544 67 186 3.0 12.0 0.00 0.00 0.00 76 1021.0
20260906132044 67 182 5.0 12.0 0.00 0.00 0.00 76 1021.0
20260906131606 67 145 3.0 10.0 0.00 0.00 0.00 77 1020.9
20260906131043 67 160 3.0 10.0 0.00 0.00 0.00 77 1020.8
20260906130543 67 148 2.0 7.0 0.00 0.00 0.00 77 1021.0
20260906130111 67 158 2.0 7.0 0.00 0.00 0.00 77 1020.8
20260906125545 67 179 2.0 7.0 0.00 0.00 0.00 76 1020.8
20260906125044 67 117 3.0 8.0 0.00 0.00 0.00 76 1020.7
20260906124557 67 187 2.0 8.0 0.00 0.00 0.00 76 1020.7
20260906124046 67 191 2.0 7.0 0.00 0.00 0.00 76 1020.6
20260906123548 68 95 2.0 10.0 0.00 0.00 0.00 76 1020.6
20260906123056 68 159 4.0 10.0 0.00 0.00 0.00 76 1020.7
20260906122545 68 177 3.0 12.0 0.00 0.00 0.00 77 1020.7
20260906122045 68 158 3.0 12.0 0.00 0.00 0.00 76 1020.6
20260906121609 68 196 5.0 13.0 0.00 0.00 0.00 76 1020.6
20260906121043 68 172 5.0 16.0 0.00 0.00 0.00 76 1020.5
20260906120543 68 136 7.0 16.0 0.00 0.00 0.00 76 1020.5
20260906115543 69 157 7.0 14.0 0.00 0.00 0.00 77 1020.3
20260906115048 69 166 2.0 9.0 0.00 0.00 0.00 78 1020.2
20260906114611 69 144 2.0 12.0 0.00 0.00 0.00 77 1020.1
20260906114044 69 173 4.0 12.0 0.00 0.00 0.00 77 1020.1
20260906113544 69 120 4.0 12.0 0.00 0.00 0.00 78 1020.0
20260906113101 70 124 4.0 12.0 0.00 0.00 0.00 78 1019.9
20260906112543 70 156 5.0 15.0 0.00 0.00 0.00 78 1019.9
20260906112048 70 123 4.0 15.0 0.00 0.00 0.00 79 1019.7
20260906111558 70 103 4.0 14.0 0.00 0.00 0.00 80 1019.8
20260906111043 70 142 3.0 14.0 0.00 0.00 0.00 80 1019.6
20260906110543 70 128 2.0 11.0 0.00 0.00 0.00 80 1019.6
20260906110051 70 186 4.0 11.0 0.00 0.00 0.00 80 1019.4
20260906105546 70 126 3.0 11.0 0.00 0.00 0.00 80 1019.4
20260906105044 70 150 4.0 17.0 0.00 0.00 0.00 80 1019.3
20260906104556 71 158 5.0 18.0 0.00 0.00 0.00 80 1019.4
20260906104043 71 146 4.0 18.0 0.00 0.00 0.00 80 1019.5
20260906103543 71 158 3.0 13.0 0.00 0.00 0.00 80 1018.9
20260906103056 71 136 5.0 13.0 0.00 0.00 0.00 80 1018.9
20260906102544 71 183 5.0 10.0 0.00 0.00 0.00 80 1018.8
20260906102044 71 140 3.0 15.0 0.00 0.00 0.00 80 1018.6
20260906101603 71 176 6.0 15.0 0.00 0.00 0.00 80 1018.6
20260906101043 72 200 5.0 15.0 0.00 0.00 0.00 80 1018.4
20260906100542 72 158 4.0 14.0 0.00 0.00 0.00 79 1018.2
20260906100058 72 142 5.0 14.0 0.00 0.00 0.00 79 1018.2
20260906095545 72 167 7.0 14.0 0.00 0.00 0.00 79 1018.0
20260906095045 73 103 4.0 16.0 0.00 0.00 0.00 78 1017.9
20260906094554 74 117 5.0 16.0 0.00 0.00 0.00 77 1017.7
20260906094043 74 105 6.0 16.0 0.00 0.00 0.00 75 1017.5
20260906093545 75 164 4.0 12.0 0.00 0.00 0.00 73 1017.4
20260906093057 75 104 5.0 12.0 0.00 0.00 0.00 71 1017.2
20260906092544 76 122 5.0 13.0 0.00 0.00 0.00 66 1017.1
20260906092044 77 141 4.0 13.0 0.00 0.00 0.00 61 1016.8
20260906091600 77 94 5.0 11.0 0.00 0.00 0.00 54 1016.6
20260906091044 78 0 0.0 0.0 0.00 0.00 0.00 35 1016.5
20260906090543 79 0 0.0 0.0 0.00 0.00 0.00 34 1016.1
20260906090108 80 0 0.0 0.0 0.00 0.00 0.00 34 1015.9
20260906085545 80 0 0.0 1.0 0.00 0.00 0.00 33 1015.8
20260906085043 81 0 0.0 4.0 0.00 0.00 0.00 32 1015.8
20260906084559 81 0 0.0 4.0 0.00 0.00 0.00 33 1015.6
20260906084043 81 257 0.0 1.0 0.00 0.00 0.00 33 1015.6
20260906083543 82 327 0.0 3.0 0.00 0.00 0.00 33 1015.4
20260906083056 83 311 0.0 3.0 0.00 0.00 0.00 32 1015.3
20260906082542 83 240 1.0 3.0 0.00 0.00 0.00 31 1015.2
20260906082044 83 248 0.0 3.0 0.00 0.00 0.00 32 1015.1
20260906081619 84 0 0.0 3.0 0.00 0.00 0.00 31 1014.9
20260906081043 84 0 0.0 4.0 0.00 0.00 0.00 31 1014.9
20260906080543 85 0 0.0 4.0 0.00 0.00 0.00 31 1014.8
20260906080056 85 188 1.0 4.0 0.00 0.00 0.00 31 1014.7
20260906075543 85 328 0.0 4.0 0.00 0.00 0.00 31 1014.6
20260906075043 86 0 1.0 4.0 0.00 0.00 0.00 31 1014.5
20260906074614 86 0 1.0 5.0 0.00 0.00 0.00 31 1014.4
20260906074046 86 147 1.0 5.0 0.00 0.00 0.00 30 1014.2
20260906073544 87 218 3.0 6.0 0.00 0.00 0.00 30 1014.2
20260906073101 87 0 1.0 8.0 0.00 0.00 0.00 30 1014.2
20260906072545 88 137 4.0 8.0 0.00 0.00 0.00 29 1014.1
20260906072047 88 184 3.0 8.0 0.00 0.00 0.00 29 1014.1
20260906071600 88 244 2.0 9.0 0.00 0.00 0.00 29 1014.0
20260906071045 88 198 2.0 9.0 0.00 0.00 0.00 28 1013.7
20260906070543 89 329 2.0 5.0 0.00 0.00 0.00 28 1013.6
20260906070054 89 228 0.0 8.0 0.00 0.00 0.00 28 1013.6
20260906065543 89 0 2.0 8.0 0.00 0.00 0.00 28 1013.4
20260906065043 90 300 2.0 8.0 0.00 0.00 0.00 28 1013.4
20260906064551 90 213 3.0 11.0 0.00 0.00 0.00 27 1013.4
20260906064045 90 227 4.0 11.0 0.00 0.00 0.00 27 1013.3
20260906063545 90 252 4.0 11.0 0.00 0.00 0.00 26 1013.1
20260906063059 90 193 6.0 11.0 0.00 0.00 0.00 26 1013.2
20260906062545 90 250 2.0 14.0 0.00 0.00 0.00 27 1013.1
20260906062046 90 240 3.0 14.0 0.00 0.00 0.00 26 1013.1
20260906061608 90 173 6.0 17.0 0.00 0.00 0.00 26 1013.0
20260906061045 90 179 5.0 17.0 0.00 0.00 0.00 27 1013.0
20260906060544 90 152 1.0 8.0 0.00 0.00 0.00 28 1012.9
20260906060055 90 200 2.0 7.0 0.00 0.00 0.00 29 1013.0
20260906055543 90 245 1.0 9.0 0.00 0.00 0.00 29 1013.0
20260906055043 90 192 3.0 13.0 0.00 0.00 0.00 29 1013.0
20260906054552 91 219 5.0 13.0 0.00 0.00 0.00 29 1013.1
20260906054043 91 172 2.0 6.0 0.00 0.00 0.00 30 1012.9
20260906053545 91 197 2.0 7.0 0.00 0.00 0.00 29 1013.0
20260906053056 92 229 3.0 9.0 0.00 0.00 0.00 29 1012.9
20260906052545 92 188 2.0 9.0 0.00 0.00 0.00 29 1012.9
20260906052045 93 179 3.0 11.0 0.00 0.00 0.00 29 1012.7
20260906051602 93 324 2.0 13.0 0.00 0.00 0.00 29 1012.7
20260906051044 93 284 6.0 15.0 0.00 0.00 0.00 28 1012.8
20260906050548 92 224 6.0 15.0 0.00 0.00 0.00 28 1012.7
20260906050055 93 202 5.0 9.0 0.00 0.00 0.00 28 1012.8
20260906045547 92 328 1.0 7.0 0.00 0.00 0.00 30 1012.7
20260906045043 92 242 3.0 11.0 0.00 0.00 0.00 29 1012.7
20260906044556 92 204 3.0 11.0 0.00 0.00 0.00 29 1012.9
20260906044045 92 257 2.0 11.0 0.00 0.00 0.00 28 1012.8
20260906043543 92 279 2.0 7.0 0.00 0.00 0.00 29 1012.8
20260906043056 93 230 1.0 9.0 0.00 0.00 0.00 29 1012.9
20260906042546 93 324 2.0 9.0 0.00 0.00 0.00 30 1012.8
20260906042045 94 222 1.0 10.0 0.00 0.00 0.00 29 1012.7
20260906041557 94 287 3.0 10.0 0.00 0.00 0.00 29 1012.7
20260906041045 94 354 1.0 10.0 0.00 0.00 0.00 29 1012.7
20260906040544 94 316 3.0 10.0 0.00 0.00 0.00 29 1012.8
20260906040055 94 250 1.0 11.0 0.00 0.00 0.00 29 1012.8
20260906035542 93 216 6.0 15.0 0.00 0.00 0.00 29 1012.8
20260906035047 93 211 3.0 15.0 0.00 0.00 0.00 30 1012.9
20260906034550 93 201 6.0 15.0 0.00 0.00 0.00 30 1013.0
20260906034043 93 295 2.0 10.0 0.00 0.00 0.00 30 1012.9
20260906033541 93 208 3.0 10.0 0.00 0.00 0.00 30 1013.0
20260906033057 93 333 3.0 11.0 0.00 0.00 0.00 31 1013.1
20260906032542 92 254 5.0 11.0 0.00 0.00 0.00 31 1013.1
20260906032045 93 203 3.0 7.0 0.00 0.00 0.00 31 1013.1
20260906031600 93 339 3.0 12.0 0.00 0.00 0.00 31 1013.2
20260906031046 94 266 2.0 12.0 0.00 0.00 0.00 31 1013.4
20260906030544 93 342 4.0 12.0 0.00 0.00 0.00 32 1013.5
20260906030053 93 255 2.0 6.0 0.00 0.00 0.00 33 1013.4
20260906025543 92 221 2.0 9.0 0.00 0.00 0.00 33 1013.6
20260906025043 92 288 3.0 9.0 0.00 0.00 0.00 33 1013.6
20260906024558 92 290 2.0 9.0 0.00 0.00 0.00 34 1013.9
20260906024043 92 196 3.0 6.0 0.00 0.00 0.00 35 1014.1
20260906023545 92 238 3.0 6.0 0.00 0.00 0.00 35 1014.1
20260906023056 92 254 1.0 7.0 0.00 0.00 0.00 36 1014.2
20260906022544 91 316 3.0 7.0 0.00 0.00 0.00 36 1014.4
20260906022045 90 235 2.0 6.0 0.00 0.00 0.00 38 1014.3
20260906021554 90 247 2.0 7.0 0.00 0.00 0.00 38 1014.4
20260906021043 90 35 2.0 7.0 0.00 0.00 0.00 37 1014.7
20260906020542 91 207 3.0 7.0 0.00 0.00 0.00 36 1014.7
20260906020105 90 114 1.0 9.0 0.00 0.00 0.00 38 1014.6
20260906015543 89 316 3.0 9.0 0.00 0.00 0.00 39 1014.7
20260906015043 90 329 2.0 8.0 0.00 0.00 0.00 38 1014.9
20260906014558 90 238 2.0 8.0 0.00 0.00 0.00 39 1015.0
20260906014044 89 209 1.0 6.0 0.00 0.00 0.00 38 1015.2
20260906013543 90 251 1.0 6.0 0.00 0.00 0.00 39 1015.4
20260906013056 89 252 2.0 6.0 0.00 0.00 0.00 40 1015.4
20260906012543 88 342 2.0 8.0 0.00 0.00 0.00 40 1015.5
20260906012044 88 174 1.0 9.0 0.00 0.00 0.00 41 1015.6
20260906011603 88 306 2.0 9.0 0.00 0.00 0.00 40 1015.6
20260906011044 88 237 2.0 7.0 0.00 0.00 0.00 40 1015.7
20260906010543 88 243 1.0 7.0 0.00 0.00 0.00 40 1015.7
20260906010104 88 286 2.0 7.0 0.00 0.00 0.00 40 1015.7
20260906005543 87 240 2.0 12.0 0.00 0.00 0.00 40 1015.8
20260906005043 86 242 5.0 12.0 0.00 0.00 0.00 40 1015.9
20260906004602 87 208 5.0 9.0 0.00 0.00 0.00 40 1016.1
20260906004042 88 309 3.0 7.0 0.00 0.00 0.00 39 1016.2
20260906003543 88 234 2.0 7.0 0.00 0.00 0.00 40 1016.3
20260906003105 87 304 0.0 7.0 0.00 0.00 0.00 43 1016.3
20260906002543 86 249 3.0 7.0 0.00 0.00 0.00 42 1016.3
20260906002042 86 334 0.0 7.0 0.00 0.00 0.00 43 1016.3
20260906001559 87 203 1.0 7.0 0.00 0.00 0.00 43 1016.3
20260906001043 86 0 0.0 6.0 0.00 0.00 0.00 50 1016.4
20260906000543 84 346 0.0 6.0 0.00 0.00 0.00 53 1016.4
20260906000101 83 233 1.0 4.0 0.00 0.00 0.00 55 1016.4
20260905235543 82 97 1.0 3.0 0.00 0.00 0.00 59 1016.3
20260905235043 82 187 0.0 7.0 0.00 0.00 0.00 62 1016.3
20260905234604 82 156 1.0 7.0 0.00 0.00 0.00 62 1016.5
20260905234044 84 176 0.0 0.0 0.00 0.00 0.00 60 1016.5
20260905233544 84 0 0.0 0.0 0.00 0.00 0.00 61 1016.3
20260905233102 83 0 0.0 1.0 0.00 0.00 0.00 62 1016.3
20260905232544 82 0 0.0 3.0 0.00 0.00 0.00 64 1016.2
20260905232044 81 0 0.0 6.0 0.00 0.00 0.00 65 1016.3
20260905231600 80 294 1.0 6.0 0.00 0.00 0.00 64 1016.3
20260905231044 80 0 0.0 0.0 0.00 0.00 0.00 66 1016.4
20260905230544 79 0 0.0 0.0 0.00 0.00 0.00 71 1016.2
20260905230057 77 0 0.0 0.0 0.00 0.00 0.00 73 1016.3
20260905225544 76 0 0.0 0.0 0.00 0.00 0.00 76 1016.3
20260905225043 75 0 0.0 1.0 0.00 0.00 0.00 75 1016.4
20260905224609 75 0 0.0 1.0 0.00 0.00 0.00 74 1016.5
20260905224045 74 0 0.0 1.0 0.00 0.00 0.00 77 1016.6
20260905223544 73 0 0.0 1.0 0.00 0.00 0.00 78 1016.7
20260905223100 72 0 0.0 2.0 0.00 0.00 0.00 80 1016.9
20260905222545 72 0 0.0 3.0 0.00 0.00 0.00 80 1017.0
20260905222041 71 37 0.0 3.0 0.00 0.00 0.00 83 1016.8
20260905221603 70 0 1.0 3.0 0.00 0.00 0.00 84 1017.1
20260905221044 69 72 0.0 2.0 0.00 0.00 0.00 89 1017.1
20260905220543 68 89 0.0 2.0 0.00 0.00 0.00 89 1017.2
20260905220106 68 32 0.0 2.0 0.00 0.00 0.00 90 1017.1
20260905215544 68 169 1.0 4.0 0.00 0.00 0.00 91 1017.1
20260905215044 67 173 1.0 4.0 0.00 0.00 0.00 91 1017.2
20260905214600 67 195 0.0 5.0 0.00 0.00 0.00 92 1017.0
20260905214044 67 191 1.0 5.0 0.00 0.00 0.00 93 1016.9
20260905213544 66 187 1.0 4.0 0.00 0.00 0.00 94 1016.9
20260905213102 66 180 0.0 2.0 0.00 0.00 0.00 96 1016.8
20260905212544 65 155 0.0 3.0 0.00 0.00 0.00 97 1016.7
20260905212040 65 193 0.0 3.0 0.00 0.00 0.00 98 1016.6
20260905211627 64 153 0.0 2.0 0.00 0.00 0.00 98 1016.4
20260905211045 63 149 1.0 2.0 0.00 0.00 0.00 98 1016.3
20260905210544 62 276 1.0 2.0 0.00 0.00 0.00 98 1016.1
20260905210122 62 338 1.0 2.0 0.00 0.00 0.00 98 1016.1
20260905205544 61 309 0.0 2.0 0.00 0.00 0.00 97 1016.2
20260905205044 61 306 0.0 2.0 0.00 0.00 0.00 97 1016.2
20260905204608 61 301 1.0 2.0 0.00 0.00 0.00 97 1016.2
20260905204044 62 321 1.0 2.0 0.00 0.00 0.00 97 1016.2
20260905203540 62 295 1.0 2.0 0.00 0.00 0.00 98 1016.2
20260905203118 61 316 1.0 2.0 0.00 0.00 0.00 97 1016.1
20260905202543 61 308 0.0 2.0 0.00 0.00 0.00 97 1016.3
20260905202043 61 320 1.0 2.0 0.00 0.00 0.00 97 1016.3
20260905201559 61 318 0.0 1.0 0.00 0.00 0.00 97 1016.5
20260905201042 61 0 0.0 1.0 0.00 0.00 0.00 97 1016.5
20260905200543 61 313 0.0 1.0 0.00 0.00 0.00 97 1016.4
20260905200104 61 314 0.0 1.0 0.00 0.00 0.00 97 1016.4
20260905195543 61 0 0.0 1.0 0.00 0.00 0.00 97 1016.5
20260905195042 61 0 0.0 0.0 0.00 0.00 0.00 97 1016.6
20260905194558 61 0 0.0 1.0 0.00 0.00 0.00 97 1016.5
20260905194043 61 0 0.0 1.0 0.00 0.00 0.00 97 1016.6
20260905193543 62 0 0.0 1.0 0.00 0.00 0.00 97 1016.6
20260905193057 62 0 0.0 1.0 0.00 0.00 0.00 97 1016.6
20260905192542 63 310 0.0 4.0 0.00 0.00 0.00 97 1016.7
20260905192043 63 23 0.0 4.0 0.00 0.00 0.00 97 1016.7